N4WIB Weather Reports


Display with metric or nautical units.
time (UTC)temp
F
wind
direction
speed
MPH
gust
MPH
rain 1hr
in
rain 24hr
in
rain mn
in
humidity
%
barometer
mb
20260906094607 73 207 0.0 0.0 0.00 0.12 0.00 87 1010.9
20260906093057 74 207 0.0 0.0 0.00 0.12 0.00 87 1010.9
20260906091604 74 207 0.0 0.0 0.00 0.12 0.00 87 1010.8
20260906090056 74 207 0.0 0.0 0.00 0.12 0.00 87 1010.9
20260906084557 74 207 0.0 0.0 0.00 0.12 0.00 87 1010.7
20260906083054 74 207 0.0 0.0 0.00 0.12 0.00 87 1010.6
20260906081553 75 207 0.0 0.0 0.00 0.12 0.00 87 1010.7
20260906080053 75 208 0.0 0.0 0.00 0.12 0.00 86 1010.6
20260906074553 75 208 0.0 0.0 0.00 0.12 0.00 87 1010.8
20260906073051 75 207 0.0 0.0 0.00 0.12 0.00 86 1010.9
20260906071551 74 207 0.0 0.0 0.00 0.12 0.00 87 1010.3
20260906070050 75 208 0.0 0.0 0.00 0.12 0.00 86 1010.1
20260906064549 75 207 0.0 0.0 0.00 0.12 0.00 86 1010.3
20260906063048 75 208 0.0 0.0 0.00 0.12 0.00 86 1010.4
20260906061545 75 207 0.0 0.0 0.00 0.12 0.00 86 1010.8
20260906060044 75 207 0.0 0.0 0.00 0.12 0.00 85 1010.6
20260906054544 75 207 0.0 0.0 0.00 0.12 0.00 85 1010.9
20260906053050 75 208 0.0 0.0 0.00 0.12 0.00 85 1011.2
20260906051541 75 207 0.0 0.0 0.00 0.12 0.00 84 1011.0
20260906050049 75 208 0.0 0.0 0.00 0.12 0.00 84 1011.0
20260906044538 76 208 0.0 0.0 0.00 0.12 0.00 84 1011.1
20260906043037 75 208 0.0 0.0 0.00 0.12 0.00 84 1011.2
20260906041534 75 208 0.0 0.0 0.00 0.12 0.00 83 1011.4
20260906040032 76 208 0.0 0.0 0.00 0.12 0.00 83 1011.5
20260906034531 76 208 0.0 0.0 0.00 0.12 0.12 83 1011.3
20260906033030 77 208 0.0 0.0 0.00 0.12 0.12 83 1011.4
20260906031529 77 208 0.0 0.0 0.00 0.12 0.12 83 1011.4
20260906030029 77 208 0.0 0.0 0.00 0.12 0.12 82 1011.2
20260906024529 77 207 0.0 0.0 0.00 0.12 0.12 82 1011.2
20260906023033 78 208 0.0 0.0 0.00 0.12 0.12 81 1011.1
20260906021529 78 208 0.0 0.0 0.00 0.12 0.12 81 1011.0
20260906020027 78 208 0.0 0.0 0.00 0.12 0.12 81 1010.8
20260906014529 77 208 0.0 0.0 0.00 0.12 0.12 81 1010.8
20260906013036 78 208 0.0 0.0 0.00 0.12 0.12 81 1010.5
20260906011527 79 207 0.0 0.0 0.00 0.12 0.12 79 1010.6
20260906010026 79 208 0.0 0.0 0.00 0.12 0.12 79 1010.5
20260906004525 80 208 0.0 0.0 0.00 0.12 0.12 78 1010.3
20260906003025 80 207 0.0 0.0 0.00 0.12 0.12 78 1010.4
20260906001525 81 207 0.0 1.0 0.00 0.12 0.12 77 1010.2
20260906000040 82 208 0.0 0.0 0.00 0.12 0.12 75 1010.2
20260905234523 82 208 0.0 0.0 0.00 0.12 0.12 74 1010.2
20260905233023 83 208 0.0 0.0 0.00 0.12 0.12 74 1010.2
20260905231523 84 208 0.0 0.0 0.00 0.12 0.12 73 1010.2
20260905230022 85 208 0.0 0.0 0.00 0.12 0.12 71 1010.0
20260905224522 86 208 0.0 0.0 0.00 0.12 0.12 70 1010.0
20260905223021 87 207 0.0 4.0 0.00 0.12 0.12 69 1009.9
20260905221521 88 225 0.0 4.0 0.00 0.12 0.12 68 1009.8
20260905220020 88 219 0.0 6.0 0.00 0.12 0.12 69 1009.9
20260905214519 89 175 0.0 0.0 0.00 0.12 0.12 67 1010.3
20260905213017 89 163 0.0 0.0 0.00 0.12 0.12 68 1010.3
20260905211516 90 157 0.0 3.0 0.00 0.12 0.12 66 1010.3
20260905210017 89 163 0.0 4.0 0.00 0.12 0.12 68 1010.2
20260905204515 88 219 0.0 2.0 0.00 0.12 0.12 71 1010.5
20260905203013 89 248 0.0 4.0 0.00 0.12 0.12 71 1010.6
20260905201512 89 252 0.0 0.0 0.00 0.12 0.12 71 1010.8
20260905200015 88 252 0.0 1.0 0.00 0.12 0.12 70 1010.9
20260905194512 87 254 0.0 0.0 0.00 0.12 0.12 76 1011.0
20260905193009 87 254 0.0 0.0 0.00 0.12 0.12 76 1011.2
20260905191505 85 254 0.0 0.0 0.00 0.12 0.12 81 1011.5
20260905190001 83 254 0.0 0.0 0.00 0.12 0.12 82 1012.1
20260905184617 83 254 0.0 0.0 0.00 0.12 0.12 82 1012.0
20260905183101 80 254 0.0 0.0 0.01 0.12 0.12 86 1011.8
20260905181600 78 254 0.0 0.0 0.12 0.12 0.12 86 1012.4
20260905180057 78 254 0.0 0.0 0.12 0.12 0.12 86 1012.5
20260905174556 77 254 0.0 0.0 0.12 0.12 0.12 84 1012.5
20260905173101 78 254 0.0 2.0 0.11 0.11 0.11 73 1012.8
20260905171558 86 198 0.0 7.0 0.00 0.00 0.00 61 1013.0
20260905170053 87 186 0.0 0.0 0.00 0.00 0.00 61 1012.5
20260905164551 92 186 0.0 0.0 0.00 0.00 0.00 53 1012.8
20260905163048 90 197 0.0 0.0 0.00 0.00 0.00 59 1012.8
20260905161547 89 200 0.0 0.0 0.00 0.00 0.00 61 1012.8
20260905160048 88 202 0.0 0.0 0.00 0.00 0.00 61 1012.9
20260905154606 86 212 0.0 0.0 0.00 0.00 0.00 63 1012.8
20260905153039 84 212 0.0 0.0 0.00 0.00 0.00 67 1013.0
20260905151537 84 212 0.0 0.0 0.00 0.00 0.00 67 1013.1
20260905150033 83 212 0.0 0.0 0.00 0.00 0.00 68 1013.2
20260905144534 82 212 0.0 0.0 0.00 0.00 0.00 68 1013.2
20260905143028 81 213 0.0 1.0 0.00 0.00 0.00 69 1013.4
20260905141528 80 159 0.0 0.0 0.00 0.00 0.00 72 1013.4
20260905140026 80 159 0.0 0.0 0.00 0.00 0.00 71 1013.5
20260905134522 79 159 0.0 0.0 0.00 0.00 0.00 72 1013.5
20260905133036 79 159 0.0 0.0 0.00 0.00 0.00 72 1013.5
20260905131521 79 159 0.0 0.0 0.00 0.00 0.00 74 1013.8
20260905130020 78 159 0.0 0.0 0.00 0.00 0.00 73 1013.9
20260905124520 77 212 0.0 0.0 0.00 0.00 0.00 76 1013.9
20260905123017 76 212 0.0 0.0 0.00 0.00 0.00 78 1013.8
20260905121516 76 212 0.0 0.0 0.00 0.00 0.00 79 1013.6
20260905120016 75 212 0.0 0.0 0.00 0.00 0.00 80 1013.3
20260905114511 75 212 0.0 0.0 0.00 0.00 0.00 80 1013.1
20260905113007 74 212 0.0 0.0 0.00 0.00 0.00 80 1012.9
20260905111506 74 212 0.0 0.0 0.00 0.00 0.00 80 1012.7
20260905110014 74 212 0.0 0.0 0.00 0.00 0.00 80 1012.7
20260905104503 74 212 0.0 0.0 0.00 0.00 0.00 80 1012.6
20260905103008 74 212 0.0 0.0 0.00 0.00 0.00 80 1012.3
20260905101502 75 212 0.0 0.0 0.00 0.00 0.00 80 1012.2
20260905100001 75 212 0.0 0.0 0.00 0.00 0.00 78 1012.1